Regional Weather Roundup
Issued by NWS Boston, MA

Current Version | Previous Version | Text Only | Print | Product List | Glossary On
Versions: 1 2 3 4 5 6 7 8 9 10 11 12 13 14 15 16 17 18 19 20 21 22 23 24 25 26 27 28 29 30 31 32 33 34 35 36 37 38 39 40 41 42 43 44 45 46 47 48 49 50
000 ASUS41 KBOX 180110 RWRBOX REGIONAL WEATHER ROUNDUP NATIONAL WEATHER SERVICE TAUNTON MA 900 PM EDT TUE OCT 17 2017 NOTE: "FAIR" INDICATES FEW OR NO CLOUDS BELOW 12,000 FEET WITH NO SIGNIFICANT WEATHER AND/OR OBSTRUCTIONS TO VISIBILITY. MAZALL-180200- EASTERN MASSACHUSETTS CITY SKY/WX TMP DP RH WIND PRES REMARKS BOSTON CLEAR 50 37 61 SW16 30.24R BEVERLY CLEAR 47 34 60 SW6 30.22R LAWRENCE CLEAR 49 33 54 SW5 30.24R BEDFORD CLEAR 45 33 63 SW6 30.22R BLUE HILL N/A 46 35 65 S14 30.23R NORWOOD CLEAR 49 37 63 S5 30.25R MARSHFIELD CLEAR 46 39 76 SW6 30.25R PLYMOUTH CLEAR 46 37 71 SW6 30.26R TAUNTON CLEAR 42 36 79 S3 30.26R NEW BEDFORD CLEAR 40 37 89 CALM 30.26R $$ MAZALL-180200- CAPE COD AND THE ISLANDS CITY SKY/WX TMP DP RH WIND PRES REMARKS FALMOUTH CLEAR 45 39 81 SW8 30.27R HYANNIS CLEAR 42 38 85 CALM 30.26R CHATHAM CLEAR 50 43 77 W3 30.27R PROVINCETOWN CLEAR 51 40 65 SW14 30.26R NANTUCKET CLEAR 46 39 76 SW7 30.27S MARTHAS VNYRD CLEAR 36 34 92 W3 30.27S $$ MAZALL-180200- CENTRAL AND WESTERN MASSACHUSETTS CITY SKY/WX TMP DP RH WIND PRES REMARKS WORCESTER CLEAR 44 28 53 SW9 30.23R FITCHBURG CLEAR 47 34 60 S3 30.23R ORANGE CLEAR 39 37 92 CALM 30.22S SPRINGFIELD CLEAR 44 33 66 S7 30.23R WESTFIELD CLEAR 40 35 83 SW6 30.24R NORTH ADAMS CLEAR 36 33 89 CALM 30.22R PITTSFIELD CLEAR 41 31 67 W5 30.20S $$ RIZALL-180200- RHODE ISLAND CITY SKY/WX TMP DP RH WIND PRES REMARKS PROVIDENCE CLEAR 47 39 74 SW7 30.28R NEWPORT CLEAR 51 40 65 VRB3 30.26S BLOCK ISLAND CLEAR 51 38 60 SW10 30.28S SMITHFIELD CLEAR 45 37 73 VRB3 30.26R WESTERLY CLEAR 53 38 56 SW6 30.28S $$ CTZALL-180200- CONNECTICUT CITY SKY/WX TMP DP RH WIND PRES REMARKS BRADLEY INTL CLEAR 48 37 65 S7 30.25R HARTFORD CLEAR 48 38 68 S6 30.26R BRIDGEPORT CLEAR 56 41 57 SW13 30.27R DANBURY CLEAR 51 35 54 S6 30.27R GROTON CLEAR 54 38 54 SW12 30.27R NEW HAVEN CLEAR 56 40 55 SW9G17 30.27R CHESTER FAIR 50 37 62 SW5 30.27R MERIDEN CLEAR 43 39 86 CALM 30.27R WILLIMANTIC CLEAR 44 37 76 CALM 30.27R OXFORD CLEAR 46 35 65 SW5 30.27R $$ MEZ002-015-021-024-NHZ003-005-008-011-012-014-VTZ005-008-180200- NORTHERN NEW ENGLAND CITY SKY/WX TMP DP RH WIND PRES REMARKS PORTLAND ME CLEAR 48 33 56 SW7G17 30.18S BANGOR ME PTCLDY 46 32 58 S10 30.15R CONCORD NH CLEAR 44 33 65 S7 30.19S MANCHESTER NH CLEAR 47 34 60 SW3 30.20R NASHUA NH CLEAR 47 34 60 CALM 30.23R PORTSMOUTH NH CLEAR 46 32 57 S8 30.19S JAFFREY NH CLEAR 44 35 70 S3 30.21R KEENE NH CLEAR 38 33 82 S3 30.22R BURLINGTON VT PTCLDY 51 32 48 S14 30.10R MT. WASHINGTON PTCLDY 27 19 74 W39 N/A WCI 8 $$ NYZ052-076-180200- EASTERN NEW YORK CITY SKY/WX TMP DP RH WIND PRES REMARKS ALBANY CLEAR 49 34 56 S8 30.20F NEW YORK CITY CLEAR 56 41 57 SW7 30.28R $$ ANZALL-180200- MARINE OBSERVATIONS STATION/POSITION TIME TEMP WIND PRES VSBY WAVE AIR SEA DIR/SP/G HT/PER (UTC) (F) (DEG/KT/KT) (MB) (MI) (FT/S) BOSTON BUOY 2350 54 59 190/ 17/ 19 1022.3 3/ 7 BUZZARDS BAY 0000 53 220/ 13/ 15 1025.2R NANTUCKET SOUND 2350 52 62 240/ 10/ 12 1024.6 1 MASS BAY-STELLWA 0004 56 60 200/ 17/ 21 1022.3F 3/ 3 ISLE OF SHOALS 0000 54 200/ 20/ 21 1022.4R S OF BLOCK IS NOT AVBL $$ ......................KEY......................... SKY/WX - SKY CONDITION/PRESENT WEATHER TMP - TEMPERATURE IN FAHRENHEIT DWPT - DEWPOINT IN FAHRENHEIT RH - RELATIVE HUMIDITY IN PERCENT WIND - DIRECTION AND SPEED IN MPH PRES - MEAN SEA LEVEL PRESSURE IN INCHES OF HG WCI - WIND CHILL INDEX VSB - VISIBILITY IN MILES HX - HEAT INDEX TC - TEMPERATURE IN CELSIUS VRB - VARIABLE WIND DIRECTION N/A - NOT AVAILABLE

USA.gov is the U.S. government's official web portal to all federal, state and local government web resources and services.